Aérodrome :
LOGIN :

S'inscrire | Disclaimer

   EN    FR    IT 

 










Légende :    VFR   VFR Marginal   IFR   IFR Intensif   IFR Très Intensif
Visi : 
Plafond : 
>= 8 km
>= 3000ft
5 à 8 km
1000 à 3000 ft
1500m à 5 km
500 à 1000 ft
800 à 1500m
200 à 500 ft
< 800m
< 200 ft
Symboles :   Orages  Brouillard  Fortes neiges  Fortes précipitations  Vent > 20 kt
SIGMETs :   Divers  Orages  Givrage  Turbulence  Onde Orograph.  Cendres Volcan.







- Altitude de l'aérodrome : 768 ft
- Code IATA : MXP


LIMC - Milano Malpensa

DERNIER METAR :
  • 150150Z 35004KT 7000 NSC M05/M06 Q1018 NOSIG

METARs EXPIRÉS :
  • 150120Z 01004KT 7000 NSC M05/M07 Q1018 NOSIG
  • 150050Z 03004KT 8000 NSC M04/M05 Q1018 NOSIG
  • 150020Z 01005KT 8000 NSC M05/M06 Q1018 NOSIG
  • 142350Z 02005KT 8000 NSC M04/M05 Q1018 NOSIG
  • 142320Z 03004KT 8000 NSC M04/M05 Q1018 NOSIG

TAF TAF LIMC
Valide du 15 à 00h jusqu'au 16 à 06h UTC


142300Z 1500/1606 VRB05KT CAVOK
Pas de NOTAMs connus pour ce terrain.



MET'MAP, la Météo Aéronautique d'un coup d'oeil ! - Copyright ORBIFLY Décembre 2007 - Disclaimer

ORBIFLY MET'MAP TEAM :

Programmation & Développement : Alexandra Zaïnal
Conception & Développement : Baudouin d'Aumeries
Co-Programmation & Développement : Marc-Olivier Méhu
Soutien technique & logistique : Manuel Goepfert

Contact : metmap@orbifly.com




SOURCES & CREDITS :

   NOAA